Location: Rottenacker
(48.2350°N, 9.6886°E)
Time: 15:58:14
(UTC+01:00)

ISS - Visible Passes

Search period start: 23 November 2017 00:00
Search period end: 03 December 2017 00:00
Orbit: 402 x 407 km, 51.6° (Epoch: 24 November)

Date Brightness Start Highest point End Pass type
(mag) Time Alt. Az. Time Alt. Az. Time Alt. Az.
27 Nov -1.1 19:07:12 10° SSW 19:07:51 14° SSW 19:07:51 14° SSW visible
28 Nov -2.1 18:15:28 10° SSW 18:17:50 21° SE 18:17:50 21° SE visible
29 Nov -1.5 17:24:20 10° SSE 17:25:53 13° SE 17:27:27 10° ESE visible
29 Nov -2.0 18:58:35 10° SW 19:00:25 30° SW 19:00:25 30° SW visible
30 Nov -3.1 18:06:26 10° SW 18:09:32 40° SSE 18:10:15 35° ESE visible
30 Nov -0.3 19:42:44 10° W 19:42:54 11° W 19:42:54 11° W visible
01 Dec -2.3 17:14:31 10° SSW 17:17:16 25° SE 17:20:01 10° E visible
01 Dec -2.8 18:50:14 10° WSW 18:52:40 46° W 18:52:40 46° W visible
02 Dec -3.9 17:57:50 10° WSW 18:01:06 76° SSE 18:02:23 34° ENE visible
02 Dec -0.5 19:34:34 10° W 19:35:02 13° WNW 19:35:02 13° WNW visible
